Current Version              Previous Version:    01  02  03  04  05  06  07  08  09  10  11  12  13  14  15  16  17  18  19  20  21  22  23  24  25  26  27  28  29  30  
   31  32  33  34  35  36  37  38  39  40  41  42  43  44  45  46  47  48  49  50  51  52  53  54  55  56  57  58  59  60  

[Printable]
487
ASUS44 KLUB 250910
RWRTX
WEST TEXAS WEATHER ROUNDUP
NATIONAL WEATHER SERVICE LUBBOCK TX
400 AM CDT SAT OCT 25 2014

NOTE: "FAIR" INDICATES FEW OR NO CLOUDS BELOW 12,000 FEET WITH NO
SIGNIFICANT WEATHER AND/OR OBSTRUCTIONS TO VISIBILITY.

TXZ004-006>008-010-012-014-016-OKZ002-251000-
TEXAS PANHANDLE/OKLAHOMA PANHANDLE

CITY           SKY/WX    TMP DP  RH WIND       PRES   REMARKS
AMARILLO       CLEAR     56  47  71 SW9       30.15S
BORGER         CLEAR     58  44  60 CALM      30.12F
CANADIAN       CLEAR     53  50  90 CALM      30.09S
DALHART        CLEAR     53  42  66 W5        30.17R
DUMAS            N/A     53  41  63 SW8       30.14S
GUYMON         CLEAR     54  42  64 CALM      30.11R
HEREFORD       CLEAR     50  45  84 CALM      30.17F
PAMPA          CLEAR     56  46  69 SW8       30.14S
PERRYTON       CLEAR     55  46  71 SW6       30.10S
$$

TXZ026-029-035-045-048-251000-
SOUTHERN PANHANDLE/SOUTH PLAINS/ROLLING PLAINS

CITY           SKY/WX    TMP DP  RH WIND       PRES   REMARKS
CHILDRESS      CLEAR     63  54  72 W6        30.10S
SEMINOLE       CLEAR     55  51  86 SW3       30.19F
LUBBOCK        CLEAR     55  48  77 W7        30.16F
PLAINVIEW      CLEAR     51  47  87 W3        30.15S
SNYDER         CLEAR     59  55  85 SW5       30.16S
$$

TXZ052-054-060>062-072-078-127-140-154-169-251000-
PERMIAN BASIN/CONCHO VALLEY/BIG COUNTRY/EDWARDS PLATEAU

CITY           SKY/WX    TMP DP  RH WIND       PRES   REMARKS
ABILENE        CLEAR     65  55  70 SW6       30.13S
BIG SPRING     CLEAR     61  57  86 SE6       30.19S
BRADY          CLEAR     63  55  77 S6        30.15S
BROWNWOOD      CLEAR     61  57  88 CALM      30.14S
JUNCTION       CLEAR     59  55  87 CALM      30.17S
MIDLAND        CLEAR     62  55  77 S5        30.16F
ODESSA         CLEAR     64  58  80 S8        30.18S
SAN ANGELO     CLEAR     60  56  86 CALM      30.15S
SONORA         CLEAR     52  50  93 CALM      30.22S
SWEETWATER     CLEAR     66  56  71 SW15      30.18S
WINK           CLEAR     62  56  80 E8        30.14F
$$

TXZ055-058-074-075-080-082-251000-
FAR WEST/SOUTHWEST MOUNTAINS/TRANS PECOS

CITY           SKY/WX    TMP DP  RH WIND       PRES   REMARKS
ALPINE         CLEAR     59  52  78 SW7       30.30F
DRYDEN           N/A     63  60  90 N8        30.14S
EL PASO        CLEAR     61  51  70 N3        30.20S
FORT STOCKTON  CLEAR     62  57  83 S9        30.16F
GUADALUPE PASS CLEAR     61  43  51 W12       30.30S
MARFA          CLEAR     48  46  93 N6        30.29F
PECOS          CLEAR     56  52  86 CALM      30.14S
PRESIDIO       FAIR      67  53  61 N7        30.16S
$$

TXZ014-016-019-021>030-083-251000
TEXAS TECH WEST TEXAS MESONET/TEXAS PANHANDLE/NORTHERN SOUTH PLAINS

CITY           SKY/WX    TMP DP  RH WIND       PRES   REMARKS
ABERNATHY 5ENE   N/A     51  48  89 S8        30.18S
AMARILLO 9NNE    N/A     51  44  76 S2        30.14S
AMARILLO 7SSE    N/A     50  45  82 SW9       30.16S
AMHERST 1NE      N/A     57  47  70 SW7       30.18S
BOOTLEG 11WNW    N/A     55  47  72 SW12      30.20F
CANADIAN 6E      N/A     55  52  90 W5        30.07F
CAPROCK CYN SP   N/A     69  48  47 W16       30.11S
CHILDRESS 2NNE   N/A     65  54  65 SW7       30.08S
CLARENDON 2WSW   N/A     60  49  66 SW7       30.12S
CLAUDE 12SW      N/A     64  47  55 SW5       30.15S
DIMMITT 2NE      N/A     58  46  66 SW9       30.18S
FLOYDADA 2NNE    N/A     57  50  78 SW8       30.16S
FRIONA 2NE       N/A     51  45  78 W6        30.19S
GOODLETT 3W      N/A     61  54  78 SW8       30.07S
HART 3N          N/A     48  45  87 W7        30.17F
HEREFORD 2NW     N/A     51  44  75 SW7       30.17S
MCLEAN 1E        N/A     61  51  68 SW8       30.10S
MEMPHIS 1NE      N/A     56  53  91 NW1       30.09S
MULESHOE 2SSW    N/A     46  43  89 SW5       30.19S
OLTON 6S         N/A     51  46  82 W8        30.17S
PALO DURO SP     N/A     56  45  67 W2        30.16S
PAMPA 2E         N/A     60  47  61 SW6       30.13S
PLAINVIEW 1S     N/A     52  48  86 SW2       30.16S
SILVERTON 7ESE   N/A     54  49  84 W8        30.15S
TULIA 2ENE       N/A     56  47  72 SW9       30.16S
TURKEY 2WSW      N/A     61  52  71 SW5       30.10S
UMBARGER 3NNE    N/A     52  44  76 SW9       30.17S
$$

TXZ033>036-039>041-045>048-251000
TEXAS TECH WEST TEXAS MESONET/SOUTH PLAINS

CITY           SKY/WX    TMP DP  RH WIND       PRES   REMARKS
AIKEN 3WSW       N/A     50  48  93 SW6       30.17F
ANDREWS 2NE      N/A     61  56  84 S8        30.18S
ANTON 6SSW       N/A     52  48  84 S5        30.18R
BROWNFIELD 2S    N/A     55  49  81 SW8       30.18S
DENVR CTY 7WNW   N/A     55  50  83 SW6       30.19S
GAIL 2ESE        N/A     60  55  83 SW7       30.15S
LAMESA 2SE       N/A     54  51  90 S3        30.18S
LEVELLAND 4S     N/A     51  46  82 SW7       30.18S
LUBBOCK 3WNW     N/A     58  48  70 SW2       30.18R
MORTON 1ENE      N/A     59  48  67 SW9       30.19R
ODONNELL 1N      N/A     55  50  85 SW5       30.17S
PLAINS 3N        N/A     53  47  79 SW8       30.19F
RALLS 1SE        N/A     56  49  77 SW7       30.17S
REESE CENTER     N/A     53  48  84 SW7       30.17F
SEMINOLE 2NNE    N/A     56  50  78 SW3       30.18S
SLATON 2NE       N/A     60  50  69 SW13      30.16S
SNYDER 3E        N/A     59  55  87 S6        30.15S
SUNDOWN 8SW      N/A     51  46  83 SW9       30.18F
TAHOKA 3NNE      N/A     57  50  77 SW7       30.17S
WOLFFORTH 6SSW   N/A     53  51  91 SW7       30.18S
$$

TXZ031-032-036>038-042>044-251000-
TEXAS TECH WEST TEXAS MESONET/ROLLING PLAINS

CITY           SKY/WX    TMP DP  RH WIND       PRES   REMARKS
ASPERMONT 3NE    N/A     62  55  80 S6        30.11S
FLUVANNA 3WNW    N/A     59  55  85 S6        30.16S
GRAHAM 5SSW      N/A     62  53  72 W6        30.16S
GUTHRIE 10WSW    N/A     62  54  73 SW8       30.10S
HASKELL 1NW      N/A     61  51  70 SW7       30.10S
JAYTON 1SSE      N/A     61  54  79 W6        30.12S
KNOX CITY 3NW    N/A     63  53  70 S7        30.10S
LK A HENRY 1NW   N/A     64  57  76 SW9       30.13S
NORTHFIELD 1S    N/A     62  53  74 SW7       30.09S
ODELL 4ENE       N/A     61  54  78 W3        30.07S
PADUCAH 10SW     N/A     66  53  63 SW13      30.08F
POST 1NE         N/A     64  53  66 S8        30.14S
RRING SPRGS 3N   N/A     62  51  68 SW9       30.12S
SEYMOUR 3NW      N/A     62  54  76 S3        30.08S
SPUR 1W          N/A     57  52  81 W3        30.12S
WEINERT 2NNE     N/A     62  53  73 SW7       30.10S
WHITE RVR 6NE    N/A     64  51  64 SW8       30.14S
$$

TXZ052-054-060>062-072-078-127-140-154-169-251000-
TEXAS TECH WEST TEXAS MESONET/PERMIAN BASIN/
CONCHO VALLEY/BIG COUNTRY/EDWARDS PLATEAU

CITY           SKY/WX    TMP DP  RH WIND       PRES   REMARKS
COYANOSA 2N      N/A     58  56  92 E3        30.14F
JUNCTION 1SSW    N/A     57  55  92 S5        30.17F
MERTZON 3NNE     N/A     62  58  84 S7        30.17S
SAN ANGELO 7NW   N/A     59  53  80 NW2       30.15F
STRLNG CT 4WSW   N/A     65  58  79 SW2       30.17S
ST LAWRNCE 5SW   N/A     56  53  91 SE8       30.17S
SWEETWATR 11SW   N/A     61  55  81 S6        30.17S
WALL 1E          N/A     62  55  79 SW6       30.16S
$$

TXZ055-058-074-075-080-082-251000-
TEXAS TECH WEST TEXAS MESONET/FAR WEST/SOUTHWEST MOUNTAINS/TRANS PECOS

CITY           SKY/WX    TMP DP  RH WIND       PRES   REMARKS
PRSMN GAP BBNP   N/A     65  59  79 CALM      30.18S
GUADLPE MTN NP   N/A     64  38  38 NW12      30.29F
$$